Weather History for KMRC - November, 2013

Change the Weather History Date:

Thursday, November 21, 2013

  Actual Average (KBNA) Record (KBNA)
Temperature  
Mean Temperature 57 °F 48 °F  
Max Temperature 66 °F 58 °F 77 °F (1942)
Min Temperature 48 °F 38 °F 12 °F (1887)
Degree Days  
Heating Degree Days 8    
Month to date heating degree days  
Since 1 July heating degree days  
Cooling Degree Days 0    
Month to date cooling degree days  
Year to date cooling degree days  
Growing Degree Days 7 (Base 50)    
Moisture  
Dew Point 52 °F    
Average Humidity 83    
Maximum Humidity 100    
Minimum Humidity 64    
Precipitation  
Precipitation 0.00 in 0.16 in 3.42 in (1900)
Month to date precipitation 2.84  
Year to date precipitation 41.54  
Snow  
Snow 0.00 in 0.00 in 0.30 in (1926)
Month to date snowfall 0.0  
Since 1 July snowfall T  
Since 1 September snowfall T  
Snow Depth -    
Sea Level Pressure  
Sea Level Pressure 30.23 in    
Wind  
Wind Speed 7 mph (SSE)    
Max Wind Speed 15 mph    
Max Gust Speed -    
Visibility 10 miles    
Events      
T = Trace of Precipitation, MM = Missing Value Source: NWS Daily Summary

Daily Weather History Graph

Daily Weather History Graph

Search for Another Location

Airport or City:

Trip Planner

Search our weather history database for the weather conditions in past years. The results will help you decide how hot, cold, wet, or windy it might be!

Date:

Astronomy

Nov. 21, 2013 Rise Set
Actual Time 6:30 AM CST 4:38 PM CST
Civil Twilight 6:02 AM CST 5:06 PM CST
Nautical Twilight 5:31 AM CST 5:37 PM CST
Astronomical Twilight 5:01 AM CST 6:07 PM CST
Moon 8:13 PM CST (11/21) 9:37 AM CST (11/21)
Length of Visible Light 11h 03m
Length of Day
10h 08m
Waning Gibbous, 85% of the Moon is Illuminated
Nov 21
Waning Gibbous
Nov 25
Last Quarter
Dec 2
New
Dec 9
First Quarter
Dec 17
Full

Hourly Weather History & Observations

Time (CST) Temp. Dew Point Humidity Pressure Visibility Wind Dir Wind Speed Gust Speed Precip Events Conditions
12:15 AM 48.2 °F 39.2 °F 71% 30.20 in 10.0 mi SSE 6.9 mph - N/A   Clear
12:35 AM 48.2 °F 39.2 °F 71% 30.20 in 10.0 mi South 8.1 mph - N/A   Clear
12:55 AM 48.2 °F 41.0 °F 76% 30.20 in 10.0 mi South 8.1 mph - N/A   Clear
1:15 AM 48.2 °F 42.8 °F 82% 30.21 in 10.0 mi South 6.9 mph - N/A   Clear
1:35 AM 48.2 °F 42.8 °F 82% 30.22 in 10.0 mi SSE 6.9 mph - N/A   Clear
1:55 AM 50.0 °F 42.8 °F 76% 30.22 in 10.0 mi South 6.9 mph - N/A   Mostly Cloudy
2:15 AM 50.0 °F 44.6 °F 82% 30.22 in 10.0 mi SSE 8.1 mph - N/A   Overcast
2:35 AM 51.8 °F 42.8 °F 71% 30.21 in 10.0 mi South 8.1 mph - N/A   Overcast
2:55 AM 51.8 °F 44.6 °F 76% 30.21 in 10.0 mi SSE 8.1 mph - N/A   Overcast
3:15 AM 51.8 °F 44.6 °F 76% 30.21 in 10.0 mi South 5.8 mph - N/A   Overcast
3:35 AM 51.8 °F 46.4 °F 82% 30.22 in 10.0 mi South 6.9 mph - N/A   Overcast
3:55 AM 51.8 °F 44.6 °F 76% 30.22 in 10.0 mi SSE 5.8 mph - N/A   Scattered Clouds
4:15 AM 51.8 °F 44.6 °F 76% 30.22 in 10.0 mi South 5.8 mph - N/A   Clear
4:35 AM 51.8 °F 44.6 °F 76% 30.23 in 10.0 mi SSE 5.8 mph - N/A   Clear
4:55 AM 50.0 °F 44.6 °F 82% 30.22 in 10.0 mi SSE 8.1 mph - N/A   Clear
5:15 AM 50.0 °F 44.6 °F 82% 30.23 in 10.0 mi Calm Calm - N/A   Clear
5:35 AM 48.2 °F 44.6 °F 87% 30.22 in 10.0 mi SSE 6.9 mph - N/A   Clear
5:55 AM 48.2 °F 44.6 °F 87% 30.23 in 10.0 mi South 5.8 mph - N/A   Clear
6:15 AM 48.2 °F 44.6 °F 87% 30.23 in 10.0 mi South 4.6 mph - N/A   Clear
6:35 AM 48.2 °F 44.6 °F 87% 30.24 in 10.0 mi South 9.2 mph - N/A   Unknown
6:55 AM 50.0 °F 44.6 °F 82% 30.26 in 10.0 mi South 6.9 mph - N/A   Scattered Clouds
7:15 AM 50.0 °F 46.4 °F 87% 30.25 in 10.0 mi South 8.1 mph - N/A   Scattered Clouds
7:35 AM 51.8 °F 48.2 °F 88% 30.26 in 10.0 mi South 6.9 mph - N/A   Partly Cloudy
7:55 AM 51.8 °F 48.2 °F 88% 30.27 in 10.0 mi South 8.1 mph - N/A   Mostly Cloudy
8:15 AM 53.6 °F 50.0 °F 88% 30.27 in 10.0 mi South 6.9 mph - N/A   Overcast
8:35 AM 53.6 °F 48.2 °F 82% 30.27 in 10.0 mi South 8.1 mph - N/A   Overcast
8:55 AM 55.4 °F 51.8 °F 88% 30.27 in 10.0 mi South 10.4 mph - N/A   Mostly Cloudy
9:15 AM 55.4 °F 51.8 °F 88% 30.28 in 10.0 mi South 11.5 mph - N/A   Mostly Cloudy
9:35 AM 57.2 °F 53.6 °F 88% 30.27 in 10.0 mi South 9.2 mph - N/A   Mostly Cloudy
9:55 AM 59.0 °F 51.8 °F 77% 30.27 in 10.0 mi SSE 9.2 mph - N/A   Partly Cloudy
10:35 AM 60.8 °F 53.6 °F 77% 30.27 in 10.0 mi SSW 12.7 mph - N/A   Clear
10:55 AM 62.6 °F 53.6 °F 72% 30.26 in 10.0 mi South 9.2 mph - N/A   Clear
11:15 AM 64.4 °F 53.6 °F 68% 30.25 in 10.0 mi South 9.2 mph - N/A   Clear
11:35 AM 62.6 °F 53.6 °F 72% 30.24 in 10.0 mi SSE 13.8 mph - N/A   Clear
11:55 AM 62.6 °F 53.6 °F 72% 30.22 in 10.0 mi South 12.7 mph - N/A   Clear
12:15 PM 64.4 °F 53.6 °F 68% 30.22 in 10.0 mi SSE 10.4 mph - N/A   Clear
12:35 PM 64.4 °F 55.4 °F 73% 30.21 in 10.0 mi SSW 15.0 mph - N/A   Clear
12:55 PM 64.4 °F 55.4 °F 73% 30.20 in 10.0 mi South 13.8 mph - N/A   Clear
1:15 PM 64.4 °F 57.2 °F 77% 30.19 in 10.0 mi South 11.5 mph - N/A   Partly Cloudy
1:35 PM 64.4 °F 55.4 °F 73% 30.18 in 10.0 mi South 6.9 mph - N/A   Unknown
1:55 PM 66.2 °F 53.6 °F 64% 30.17 in 10.0 mi SSE 9.2 mph - N/A   Unknown
2:15 PM 66.2 °F 55.4 °F 68% 30.17 in 10.0 mi South 8.1 mph - N/A   Unknown
2:35 PM 66.2 °F 55.4 °F 68% 30.17 in 10.0 mi South 6.9 mph - N/A   Unknown
2:55 PM 66.2 °F 55.4 °F 68% 30.18 in 10.0 mi South 6.9 mph - N/A   Unknown
3:15 PM 66.2 °F 55.4 °F 68% 30.18 in 10.0 mi SE 8.1 mph - N/A   Partly Cloudy
3:35 PM 64.4 °F 55.4 °F 73% 30.19 in 10.0 mi SSE 10.4 mph - N/A   Clear
3:55 PM 62.6 °F 57.2 °F 82% 30.19 in 10.0 mi SSE 10.4 mph - N/A   Partly Cloudy
4:15 PM 62.6 °F 57.2 °F 82% 30.20 in 10.0 mi SSE 6.9 mph - N/A   Mostly Cloudy
4:35 PM 60.8 °F 57.2 °F 88% 30.21 in 10.0 mi SSE 6.9 mph - N/A   Overcast
4:55 PM 60.8 °F 59.0 °F 94% 30.21 in 10.0 mi SSE 6.9 mph - N/A   Overcast
5:15 PM 60.8 °F 59.0 °F 94% 30.21 in 10.0 mi SE 5.8 mph - N/A   Mostly Cloudy
5:35 PM 60.8 °F 59.0 °F 94% 30.21 in 10.0 mi SSE 4.6 mph - N/A   Mostly Cloudy
5:55 PM 60.8 °F 59.0 °F 94% 30.22 in 10.0 mi SSE 4.6 mph - N/A   Overcast
6:15 PM 60.8 °F 57.2 °F 88% 30.22 in 10.0 mi SE 4.6 mph - N/A   Mostly Cloudy
6:35 PM 60.8 °F 59.0 °F 94% 30.23 in 10.0 mi SE 3.5 mph - N/A   Mostly Cloudy
6:55 PM 60.8 °F 59.0 °F 94% 30.24 in 10.0 mi SE 3.5 mph - N/A   Overcast
7:15 PM 60.8 °F 59.0 °F 94% 30.24 in 10.0 mi SSE 3.5 mph - N/A   Overcast
7:35 PM 60.8 °F 59.0 °F 94% 30.24 in 10.0 mi SSE 3.5 mph - N/A   Overcast
7:55 PM 60.8 °F 59.0 °F 94% 30.25 in 10.0 mi Calm Calm - N/A   Overcast
8:15 PM 60.8 °F 59.0 °F 94% 30.25 in 10.0 mi Calm Calm - N/A   Overcast
8:35 PM 60.8 °F 59.0 °F 94% 30.25 in 10.0 mi SSE 5.8 mph - N/A   Overcast
8:55 PM 60.8 °F 59.0 °F 94% 30.25 in 10.0 mi South 3.5 mph - N/A   Overcast
9:15 PM 59.0 °F 59.0 °F 100% 30.25 in 10.0 mi South 4.6 mph - N/A   Overcast
9:35 PM 59.0 °F 59.0 °F 100% 30.25 in 10.0 mi Calm Calm - N/A   Mostly Cloudy
9:55 PM 59.0 °F 59.0 °F 100% 30.24 in 10.0 mi South 4.6 mph - N/A   Overcast
10:15 PM 57.2 °F 57.2 °F 100% 30.24 in 8.0 mi Calm Calm - N/A   Overcast
10:35 PM 57.2 °F 57.2 °F 100% 30.24 in 8.0 mi South 6.9 mph - N/A   Overcast
10:55 PM 57.2 °F 57.2 °F 100% 30.24 in 9.0 mi South 6.9 mph - N/A   Mostly Cloudy
11:35 PM - - N/A% 30.23 in 8.0 mi SSE 5.8 mph - N/A   Overcast
11:55 PM - - N/A% 30.22 in 10.0 mi SSE 6.9 mph - N/A   Mostly Cloudy